CAPE
1091 1593 1986 1639 1658 1885 1914 1853 1940 1656 1548 1404 1179 1622 1818 1750 1710 1565 1332 1115 1040 590 338 242 231 194 168 350 845 638 263 146 109 210 500 458 411 406 607 606 678 286 549
1148 1645 2178 2139 1976 1896 2066 2016 2242 2330 2112 1569 1176 1301 1412 1519 1443 1114 1020 940 671 411 298 312 227 124 15 34 290 470 295 298 323 370 285 355 650 665 529 658 646 400 429
1359 1611 1831 2293 2356 2006 2034 2089 1998 1951 2067 1955 1298 934 814 741 1046 846 826 643 517 418 482 365 172 117 146 151 60 16 136 281 244 290 170 83 429 674 557 610 857 539 326
1389 1528 1750 2343 2053 1822 1923 1835 1897 1859 1963 1841 1795 1243 861 794 682 828 882 817 627 860 792 397 298 297 285 259 152 84 83 296 145 61 27 30 294 544 552 386 272 223 169
1425 1399 1694 2258 2065 1796 1723 1826 1856 1743 1771 1813 1847 1668 1332 1096 935 1049 1039 1128 1318 1144 1239 643 547 628 615 449 211 197 97 122 45 2 96 23 38 400 611 547 465 354 419
1392 1472 1991 2360 1900 1832 1608 1632 1612 1607 1516 1528 1656 1718 1589 1375 1166 1244 1460 1559 1397 1294 1222 945 818 670 608 683 351 207 182 88 0 0 0 81 34 173 600 520 398 376 666
1230 1354 1734 2272 2044 2030 1853 1669 1600 1565 1555 1489 1386 1366 1450 1581 1351 1306 1502 1547 1485 1340 1171 1049 781 605 356 417 412 241 113 0 0 0 0 0 48 217 521 322 381 378 476
1119 1269 1460 1966 1992 1956 1827 1774 1747 1564 1510 1427 1520 1457 1328 1469 1498 1435 1415 1440 1379 1202 1238 1007 877 705 327 187 453 361 64 0 0 0 0 7 15 528 448 310 546 565 583
771 815 946 1148 1289 1407 1399 1350 1453 1512 1482 1576 1349 1354 1403 1316 1360 1442 1347 1163 1312 1260 1175 1266 995 776 436 231 362 102 0 0 5 50 56 141 189 477 742 572 691 602 704
0 0 0 94 604 693 802 1009 1045 1093 1050 1148 1184 1157 925 937 1172 1218 1251 1193 1242 1146 1173 1210 1122 863 568 500 395 31 0 0 0 99 65 84 269 599 696 688 654 588 684
0 0 0 0 0 0 41 129 492 393 375 435 485 640 730 698 697 880 878 898 945 1131 1031 1067 1211 831 618 411 217 10 0 0 0 67 92 59 426 534 378 608 709 725 633
0 0 0 0 0 0 0 0 0 0 0 0 0 0 108 407 412 415 515 671 768 843 771 860 890 809 471 200 84 8 0 0 0 22 65 81 448 306 459 597 569 578 616
0 0 0 0 0 0 0 0 0 0 0 0 0 0 0 3 158 218 231 341 632 688 729 651 541 531 487 127 70 11 0 0 0 3 49 99 500 435 416 422 336 335 274
0 0 0 0 0 0 0 0 0 0 0 0 0 0 0 0 0 24 86 142 260 434 595 622 539 547 486 297 66 98 7 0 0 0 2 60 126 446 414 383 482 309 140
0 0 0 0 0 0 0 0 0 0 0 0 0 0 0 0 0 0 86 255 282 349 403 504 517 512 455 472 297 92 95 14 2 0 5 58 85 220 482 469 316 320 212
0 0 0 0 0 0 0 0 0 0 0 0 0 0 0 0 0 0 27 116 158 297 509 527 482 415 401 449 438 362 126 58 25 13 1 43 44 62 361 614 524 344 247
0 0 0 0 0 0 0 0 0 0 0 0 0 0 0 0 0 0 2 213 467 541 641 685 692 588 437 301 279 344 353 189 81 58 22 62 0 2 21 439 576 643 474
0 0 0 0 0 0 0 0 0 0 0 0 0 0 0 0 0 0 0 0 28 235 446 520 513 513 744 397 499 262 250 251 151 55 43 78 61 6 20 45 359 647 753
0 0 0 0 0 0 0 0 0 0 0 0 0 0 0 0 0 0 0 0 0 0 18 156 301 305 378 350 414 202 206 208 198 105 21 10 35 9 16 6 42 97 176
0 0 0 0 0 0 0 0 0 0 0 0 0 0 0 0 0 0 0 0 0 0 0 0 0 5 118 322 311 402 171 158 150 154 145 95 4 11 38 4 9 68 109
0 0 0 0 0 0 0 0 0 0 0 0 0 0 0 0 0 0 0 0 0 0 0 0 0 0 0 0 4 35 244 50 2 20 40 86 112 97 30 69 11 80 86
0 0 0 0 0 0 0 0 0 0 0 0 0 0 0 0 0 0 0 0 0 0 0 0 0 0 0 0 0 3 0 0 1 0 0 26 100 137 46 10 72 96 37
0 0 0 0 0 0 0 0 0 1 0 0 0 0 0 0 1 0 0 0 9 13 3 0 0 0 0 0 0 0 0 0 0 0 15 19 4 62 149 151 93 83 93
0 0 0 0 0 0 0 0 0 2 2 4 2 0 0 0 0 0 0 0 5 14 17 8 0 0 0 0 0 22 29 0 1 0 0 0 14 1 15 113 95 55 43
0 0 0 0 0 0 0 0 0 7 2 2 3 0 1 0 1 0 1 2 3 6 14 16 15 6 0 0 0 0 0 2 10 25 7 0 0 0 0 1 24 101 92
0 0 0 0 0 0 0 0 2 5 11 9 10 7 2 0 2 1 3 12 11 8 12 6 8 13 8 0 0 0 0 0 1 0 4 5 0 0 0 0 0 0 4
CIN
-14 -1 0 -1 -4 -2 -2 0 0 0 0 0 -1 0 0 0 0 0 0 0 0 -7 -17 -23 -26 -27 -34 -2 0 0 -43 -105 -143 -115 -42 -39 -42 -35 -11 -12 -10 -46 -6
-30 -1 0 0 0 0 0 0 0 0 0 0 0 0 0 0 0 0 0 0 0 -14 -18 -10 -13 -54 -170 -144 -20 -4 -44 -53 -53 -61 -100 -81 -24 -17 -27 -16 -15 -33 -20
-21 -2 -1 0 0 -1 0 0 0 0 0 0 0 -8 -9 -14 0 0 0 -8 -7 -6 0 -2 -25 -47 -38 -46 -123 -175 -114 -56 -86 -74 -126 -174 -51 -20 -26 -29 -5 -22 -52
-17 -3 -2 0 -1 -5 -1 -2 -1 0 0 0 0 0 -7 -10 -10 0 0 0 -1 0 0 -1 -1 -7 -10 -15 -57 -121 -138 -52 -120 -165 -228 -225 -72 -29 -24 -53 -81 -94 -101
-10 -12 -4 0 0 -3 -4 -1 -1 -1 0 0 0 -1 0 0 -1 0 0 0 0 0 0 0 0 0 0 -1 -36 -50 -128 -121 -191 -73 -131 -222 -222 -42 -11 -33 -41 -49 -32
-15 -8 -1 0 0 -1 -5 -3 -3 -1 -1 -1 0 0 0 0 0 0 0 -2 -2 -1 0 0 0 0 -1 0 -3 -54 -81 -154 0 0 -3 -142 -206 -97 -7 -32 -35 -38 -5
-44 -27 -4 0 -2 0 0 -1 -1 -1 0 -1 -1 0 0 0 0 0 -1 -1 -1 0 0 -1 -3 -3 -10 -7 -1 -36 -131 0 0 0 0 0 -156 -56 -7 -31 -26 -38 -29
-46 -41 -23 -1 -1 -1 -1 -1 -1 -1 -1 -1 -1 0 -1 0 -1 -1 -2 -1 -1 0 0 0 -1 -4 -13 -33 -2 -7 -135 0 0 0 0 -84 -120 -3 -6 -29 -6 -13 -16
-46 -50 -49 -35 -24 -14 -8 -6 -3 -1 -2 -1 -3 -3 -2 -1 -1 -1 -2 -3 -1 0 -2 0 -3 -4 -6 -16 0 -59 0 0 -21 -183 -168 -88 -75 -6 0 0 -6 -4 -2
0 0 0 -129 -65 -56 -45 -23 -13 -8 -9 -6 -5 -5 -11 -9 -4 -3 -2 -5 -2 -3 -2 -2 -1 -1 -5 -2 -1 -84 0 0 0 -121 -145 -77 -22 -4 -5 -4 -11 -17 -8
0 0 0 0 0 0 -101 -81 -57 -68 -65 -53 -36 -18 -10 -11 -15 -8 -5 -6 -8 -6 -5 -3 -1 -5 -5 -7 -15 -146 0 0 0 -111 -93 -105 -10 -1 -4 -7 -7 -3 -10
0 0 0 0 0 0 0 0 0 0 0 0 0 0 -123 -26 -25 -21 -18 -13 -8 -11 -9 -7 -7 -8 -10 -21 -39 -148 0 0 0 -111 -90 -77 -8 -4 -7 -11 -2 -1 -3
0 0 0 0 0 0 0 0 0 0 0 0 0 0 0 -12 -82 -46 -37 -22 -12 -8 -7 -8 -8 -8 -10 -46 -60 -109 0 0 0 -45 -85 -45 -6 -2 -9 -7 -13 -5 -7
0 0 0 0 0 0 0 0 0 0 0 0 0 0 0 0 0 -177 -95 -54 -28 -16 -9 -9 -13 -11 -16 -21 -62 -47 -60 0 0 0 -49 -57 -44 -2 -4 -14 -8 -12 -59
0 0 0 0 0 0 0 0 0 0 0 0 0 0 0 0 0 0 -84 -16 -14 -19 -17 -12 -11 -16 -16 -13 -20 -49 -43 -43 -4 0 -82 -36 -27 -28 -5 -2 -12 -11 -35
0 0 0 0 0 0 0 0 0 0 0 0 0 0 0 0 0 0 -196 -69 -41 -12 -5 -8 -9 -14 -22 -15 -13 -17 -40 -50 -69 -11 -14 -25 -24 -23 -22 -2 -3 -11 -15
0 0 0 0 0 0 0 0 0 0 0 0 0 0 0 0 0 0 -108 -57 -14 -13 -8 -5 -2 -2 -7 -13 -11 -12 -17 -33 -56 -51 -24 -4 0 -38 -22 -16 -3 0 -1
0 0 0 0 0 0 0 0 0 0 0 0 0 0 0 0 0 0 0 0 -176 -73 -19 -5 -6 -2 0 -7 -5 -16 -11 -11 -30 -63 -44 -19 0 -1 -4 -69 -26 -4 -1
0 0 0 0 0 0 0 0 0 0 0 0 0 0 0 0 0 0 0 0 0 0 -273 -91 -37 -23 -10 -3 0 -4 -13 -10 -11 -12 -63 -33 -38 -3 -1 -19 -23 -36 -31
0 0 0 0 0 0 0 0 0 0 0 0 0 0 0 0 0 0 0 0 0 0 0 0 0 -49 -65 -6 0 0 -4 -8 -6 -6 -12 -26 -36 -36 -14 -17 -105 -47 -32
0 0 0 0 0 0 0 0 0 0 0 0 0 0 0 0 0 0 0 0 0 0 0 0 0 0 0 0 0 -90 0 -47 -118 -29 -6 -13 -17 -43 -26 -13 -29 -74 -53
0 0 0 0 0 0 0 0 0 0 0 0 0 0 0 0 0 0 0 0 0 0 0 0 0 0 0 0 0 0 0 0 0 0 0 -36 -9 -28 -38 -25 -7 -9 -14
0 0 0 0 0 0 0 0 0 0 0 0 0 0 0 0 0 0 0 0 -1 0 -1 0 0 0 0 0 0 0 0 0 0 0 -61 -38 -34 -16 -16 -12 -8 -16 -6
0 0 0 0 0 0 0 0 0 0 0 0 0 -1 0 0 0 0 0 0 -2 0 0 -1 0 0 0 0 0 0 0 0 0 0 0 0 -6 0 -34 -20 -10 -7 -16
0 0 0 0 0 0 0 0 0 0 0 0 0 0 0 0 0 0 0 0 -2 -1 0 0 0 -1 0 0 0 0 0 0 0 0 -2 0 0 0 0 0 -2 -14 -14
0 0 0 0 0 0 0 0 0 0 0 0 0 0 0 0 0 0 0 0 -5 -2 -1 -2 0 0 0 0 0 0 0 0 -3 0 -1 0 0 0 0 0 0 0 -14
Wind_Speed
6 7 10 10 13 12 13 13 13 14 14 14 13 13 14 14 14 15 15 15 14 14 15 13 11 8 9 11 16 17 15 15 14 13 12 10 8 4 5 5 5 1 9
11 9 12 13 15 15 15 15 13 14 14 15 15 14 13 14 13 13 14 14 14 14 15 15 12 11 nan nan 13 16 15 15 13 14 13 13 12 5 5 5 4 5 9
11 10 12 14 16 17 16 17 16 15 14 14 16 17 16 15 13 13 13 15 16 15 16 17 15 12 11 12 nan nan 15 15 14 13 12 nan 12 8 7 7 9 10 10
13 12 13 15 17 16 17 18 17 17 17 15 14 16 17 17 16 14 14 14 17 18 19 19 17 14 12 12 13 nan nan 15 15 nan nan nan 12 13 13 13 13 13 12
16 14 14 16 16 17 18 18 18 19 19 17 16 14 16 17 17 16 14 12 14 18 20 20 18 18 14 13 12 14 nan 16 nan nan nan nan nan 13 14 16 15 14 12
17 17 17 18 17 18 18 18 18 17 18 18 18 17 16 16 17 17 18 17 18 16 19 21 19 18 17 14 13 13 14 nan nan nan nan nan nan 12 16 18 18 16 15
17 17 18 20 20 19 18 19 19 19 18 18 18 19 18 16 16 18 18 19 18 16 16 15 19 19 18 19 17 17 15 nan nan nan nan nan nan 11 15 16 17 18 17
13 15 17 19 21 21 20 18 19 20 20 19 19 18 18 18 18 18 17 17 18 17 16 15 18 19 19 18 23 21 nan nan nan nan nan nan nan 9 15 15 16 17 19
13 13 14 15 17 19 20 19 18 19 21 21 20 20 19 18 18 17 18 16 16 17 18 18 17 20 17 19 23 24 nan nan nan nan nan 15 11 7 11 15 15 17 20
nan nan nan nan 14 15 16 18 18 19 20 21 22 22 21 20 19 16 16 18 18 18 19 20 19 20 20 18 22 nan nan nan nan nan nan nan 17 11 13 16 19 20 20
nan nan nan nan nan nan nan 15 16 18 20 22 24 25 26 25 22 20 18 16 16 18 20 21 20 22 23 21 21 nan nan nan nan nan nan nan 22 27 23 26 23 24 24
nan nan nan nan nan nan nan nan nan nan nan nan nan nan 27 27 27 25 23 21 19 17 17 20 22 26 28 25 nan nan nan nan nan nan nan nan 25 27 29 27 28 28 27
nan nan nan nan nan nan nan nan nan nan nan nan nan nan nan nan 28 29 29 29 28 25 26 24 23 27 28 28 nan nan nan nan nan nan nan nan 23 26 30 29 29 29 29
nan nan nan nan nan nan nan nan nan nan nan nan nan nan nan nan nan nan nan 29 30 31 29 29 30 29 29 29 nan nan nan nan nan nan nan nan 21 23 25 27 28 28 27
nan nan nan nan nan nan nan nan nan nan nan nan nan nan nan nan nan nan nan 23 25 29 31 31 32 32 32 31 30 nan nan nan nan nan nan nan nan 21 22 24 26 29 28
nan nan nan nan nan nan nan nan nan nan nan nan nan nan nan nan nan nan nan 22 24 25 27 28 31 32 33 34 32 32 31 nan nan nan nan nan nan nan 23 21 22 26 28
nan nan nan nan nan nan nan nan nan nan nan nan nan nan nan nan nan nan nan 18 18 21 25 30 30 33 33 34 31 34 34 34 nan nan nan nan nan nan nan 21 20 22 27
nan nan nan nan nan nan nan nan nan nan nan nan nan nan nan nan nan nan nan nan nan 29 28 27 28 33 35 34 32 33 34 36 35 nan nan nan nan nan nan nan 22 24 25
nan nan nan nan nan nan nan nan nan nan nan nan nan nan nan nan nan nan nan nan nan nan nan 36 35 33 34 36 36 38 39 36 34 35 nan nan nan nan nan nan nan nan 28
nan nan nan nan nan nan nan nan nan nan nan nan nan nan nan nan nan nan nan nan nan nan nan nan nan nan 37 37 38 38 40 41 41 39 35 nan nan nan nan nan nan nan 35
nan nan nan nan nan nan nan nan nan nan nan nan nan nan nan nan nan nan nan nan nan nan nan nan nan nan nan nan nan nan 39 nan nan nan nan nan 39 nan nan nan nan nan nan
nan nan nan nan nan nan nan nan nan nan nan nan nan nan nan nan nan nan nan nan nan nan nan nan nan nan nan nan nan nan nan nan nan nan nan nan 41 45 nan nan nan nan nan
nan nan nan nan nan nan nan nan nan nan nan nan nan nan nan nan nan nan nan nan nan nan nan nan nan nan nan nan nan nan nan nan nan nan nan nan nan nan 46 45 nan nan nan
nan nan nan nan nan nan nan nan nan nan nan nan nan nan nan nan nan nan nan nan nan nan nan nan nan nan nan nan nan nan nan nan nan nan nan nan nan nan nan 49 nan nan nan
nan nan nan nan nan nan nan nan nan nan nan nan nan nan nan nan nan nan nan nan nan nan nan nan nan nan nan nan nan nan nan nan nan nan nan nan nan nan nan nan nan 50 nan
nan nan nan nan nan nan nan nan nan nan nan nan nan nan nan nan nan nan nan nan nan nan nan nan nan nan nan nan nan nan nan nan nan nan nan nan nan nan nan nan nan nan nan
Wind_Direction
278 267 269 269 277 282 285 285 274 264 263 264 268 268 271 274 266 258 261 261 257 250 260 265 273 263 239 220 230 242 234 232 227 222 209 210 210 246 261 261 249 240 283
295 282 273 267 275 281 279 271 272 276 269 267 268 265 264 269 274 268 258 254 252 255 266 272 272 269 nan nan 225 231 236 238 227 220 217 210 212 222 270 297 294 288 290
291 291 277 273 271 274 274 274 272 274 275 275 271 270 267 266 270 276 278 261 260 257 264 268 267 264 263 249 nan nan 243 237 232 223 227 nan 208 240 265 280 280 283 280
289 284 286 287 278 276 278 275 274 273 274 271 277 276 271 268 269 268 272 276 262 257 263 265 265 261 258 257 250 nan nan 238 235 nan nan nan 214 235 271 273 280 288 295
283 285 287 286 284 280 277 276 274 270 270 269 269 270 278 274 270 267 265 262 264 268 267 267 260 257 254 253 254 253 nan 243 nan nan nan nan nan 232 270 274 269 277 284
288 290 292 286 280 272 269 269 268 267 266 267 265 268 271 275 274 266 256 250 264 270 278 271 267 256 249 246 258 256 252 nan nan nan nan nan nan 232 253 257 264 268 268
282 277 278 284 284 280 275 269 268 267 261 258 258 260 264 267 270 270 262 257 261 268 275 279 269 264 249 244 247 251 244 nan nan nan nan nan nan 237 259 264 273 273 273
281 281 277 279 280 278 275 271 267 264 264 260 254 252 254 257 258 260 264 264 262 264 269 279 288 269 259 251 248 251 nan nan nan nan nan nan nan 230 266 274 284 285 275
279 279 274 274 277 278 274 270 265 261 256 257 258 254 248 246 248 253 254 261 266 263 262 266 267 277 268 259 257 254 nan nan nan nan nan 238 232 244 279 280 281 281 284
nan nan nan nan 271 273 274 273 261 252 252 252 249 250 249 245 242 242 247 249 259 262 262 262 262 266 267 263 263 nan nan nan nan nan nan nan 238 236 268 268 278 279 282
nan nan nan nan nan nan nan 269 269 261 250 245 245 244 246 250 247 246 246 245 247 260 261 263 263 264 261 259 259 nan nan nan nan nan nan nan 239 264 258 261 260 265 272
nan nan nan nan nan nan nan nan nan nan nan nan nan nan 250 250 251 248 246 246 248 248 257 260 264 263 256 250 nan nan nan nan nan nan nan nan 250 261 263 263 255 253 256
nan nan nan nan nan nan nan nan nan nan nan nan nan nan nan nan 252 251 251 250 251 251 253 255 257 257 261 257 nan nan nan nan nan nan nan nan 247 259 265 262 260 258 255
nan nan nan nan nan nan nan nan nan nan nan nan nan nan nan nan nan nan nan 256 257 255 254 257 257 258 259 257 nan nan nan nan nan nan nan nan 251 253 259 265 267 262 259
nan nan nan nan nan nan nan nan nan nan nan nan nan nan nan nan nan nan nan 261 262 263 262 259 257 258 259 259 258 nan nan nan nan nan nan nan nan 257 249 262 263 267 263
nan nan nan nan nan nan nan nan nan nan nan nan nan nan nan nan nan nan nan 264 266 268 267 268 267 264 261 260 259 258 259 nan nan nan nan nan nan nan 259 252 263 264 266
nan nan nan nan nan nan nan nan nan nan nan nan nan nan nan nan nan nan nan 277 278 279 278 272 270 269 266 263 261 261 258 257 nan nan nan nan nan nan nan 263 265 263 264
nan nan nan nan nan nan nan nan nan nan nan nan nan nan nan nan nan nan nan nan nan 280 280 281 282 276 270 269 267 264 260 258 258 nan nan nan nan nan nan nan 267 270 267
nan nan nan nan nan nan nan nan nan nan nan nan nan nan nan nan nan nan nan nan nan nan nan 279 279 277 279 275 268 266 266 263 259 255 nan nan nan nan nan nan nan nan 268
nan nan nan nan nan nan nan nan nan nan nan nan nan nan nan nan nan nan nan nan nan nan nan nan nan nan 275 273 273 269 265 264 264 263 260 nan nan nan nan nan nan nan 265
nan nan nan nan nan nan nan nan nan nan nan nan nan nan nan nan nan nan nan nan nan nan nan nan nan nan nan nan nan nan 267 nan nan nan nan nan 263 nan nan nan nan nan nan
nan nan nan nan nan nan nan nan nan nan nan nan nan nan nan nan nan nan nan nan nan nan nan nan nan nan nan nan nan nan nan nan nan nan nan nan 261 261 nan nan nan nan nan
nan nan nan nan nan nan nan nan nan nan nan nan nan nan nan nan nan nan nan nan nan nan nan nan nan nan nan nan nan nan nan nan nan nan nan nan nan nan 260 261 nan nan nan
nan nan nan nan nan nan nan nan nan nan nan nan nan nan nan nan nan nan nan nan nan nan nan nan nan nan nan nan nan nan nan nan nan nan nan nan nan nan nan 259 nan nan nan
nan nan nan nan nan nan nan nan nan nan nan nan nan nan nan nan nan nan nan nan nan nan nan nan nan nan nan nan nan nan nan nan nan nan nan nan nan nan nan nan nan 260 nan
nan nan nan nan nan nan nan nan nan nan nan nan nan nan nan nan nan nan nan nan nan nan nan nan nan nan nan nan nan nan nan nan nan nan nan nan nan nan nan nan nan nan nan